Mosinee, WI

12:23 PM CST on December 12, 2017 (GMT -0600)
Central Wisconsin

Weather History for KCWA - March, 2014

Change the Weather History Date:

Tuesday, March 4, 2014

  Actual Average Record
Temperature  
Mean Temperature 10 °F -  
Max Temperature 15 °F 28 °F 42 °F (2005)
Min Temperature 6 °F 12 °F -16 °F (2002)
Degree Days  
Heating Degree Days 54    
Moisture  
Dew Point 5 °F    
Average Humidity 81    
Maximum Humidity 92    
Minimum Humidity 67    
Precipitation  
Precipitation 0.00 in - - ()
Sea Level Pressure  
Sea Level Pressure 30.20 in    
Wind  
Wind Speed 2 mph (West)    
Max Wind Speed 5 mph    
Max Gust Speed -    
Visibility 7 miles    
Events Snow    
Averages and records for this station are not official NWS values.
T = Trace of Precipitation, MM = Missing Value Source: NWS Daily Summary

Daily Weather History Graph

Daily Weather History Graph

Search for Another Location

Airport or City:

Trip Planner

Search our weather history database for the weather conditions in past years. The results will help you decide how hot, cold, wet, or windy it might be!

Date:

Astronomy

Mar. 04, 2014 Rise Set
Actual Time 6:31 AM CST 5:50 PM CST
Civil Twilight 6:01 AM CST 6:19 PM CST
Nautical Twilight 5:27 AM CST 6:53 PM CST
Astronomical Twilight 4:54 AM CST 7:27 PM CST
Moon 8:06 AM CST (3/4) 10:09 PM CST (3/4)
Length of Visible Light 12h 17m
Length of Day
11h 19m
Waxing Crescent, 15% of the Moon is Illuminated
Mar 4
Waxing Crescent
Mar 8
First Quarter
Mar 16
Full
Mar 23
Last Quarter
Mar 30
New

Hourly Weather History & Observations

Time (CST) Temp. Windchill Dew Point Humidity Pressure Visibility Wind Dir Wind Speed Gust Speed Precip Events Conditions
12:15 AM 8.6 °F - 5.0 °F 85% 30.23 in 5.0 mi Calm Calm - N/A Snow Light Snow
12:35 AM 8.6 °F 0.1 °F 5.0 °F 85% 30.23 in 4.0 mi South 4.6 mph - N/A Snow Light Snow
12:55 AM 8.6 °F - 5.0 °F 85% 30.23 in 3.0 mi Calm Calm - N/A Snow Light Snow
1:15 AM 8.6 °F - 5.0 °F 85% 30.23 in 4.0 mi Calm Calm - N/A Snow Light Snow
1:35 AM 8.6 °F - 5.0 °F 85% 30.22 in 2.5 mi Calm Calm - N/A Snow Light Snow
1:55 AM 8.6 °F 2.0 °F 5.0 °F 85% 30.22 in 2.5 mi SSW 3.5 mph - N/A Snow Light Snow
2:15 AM 8.6 °F 2.0 °F 5.0 °F 85% 30.21 in 3.0 mi SSW 3.5 mph - N/A Snow Light Snow
2:35 AM 8.6 °F 2.0 °F 5.0 °F 85% 30.20 in 4.0 mi SSW 3.5 mph - N/A Snow Light Snow
2:55 AM 8.6 °F 2.0 °F 5.0 °F 85% 30.20 in 5.0 mi SSW 3.5 mph - N/A Snow Light Snow
3:15 AM 8.6 °F 2.0 °F 5.0 °F 85% 30.19 in 10.0 mi SSW 3.5 mph - N/A Snow Light Snow
3:35 AM 8.6 °F 2.0 °F 5.0 °F 85% 30.18 in 7.0 mi SSW 3.5 mph - N/A Snow Light Snow
3:55 AM 8.6 °F 2.0 °F 5.0 °F 85% 30.18 in 4.0 mi South 3.5 mph - N/A Snow Light Snow
4:15 AM 8.6 °F 2.0 °F 5.0 °F 85% 30.17 in 7.0 mi South 3.5 mph - N/A Snow Light Snow
4:35 AM 8.6 °F - 5.0 °F 85% 30.17 in 7.0 mi Calm Calm - N/A Snow Light Snow
5:45 AM 6.8 °F -2.0 °F 5.0 °F 92% 30.17 in 7.0 mi SSW 4.6 mph - N/A Snow Light Snow
6:45 AM 6.8 °F - 5.0 °F 92% 30.16 in 7.0 mi Calm Calm - N/A Snow Light Snow
7:30 AM 8.6 °F - 6.8 °F 92% 30.17 in 3.0 mi Calm Calm - N/A Snow Light Snow
7:50 AM 8.6 °F - 5.0 °F 85% 30.17 in 1.2 mi Calm Calm - N/A Snow Light Snow
8:22 AM 8.6 °F 2.0 °F 6.8 °F 92% 30.17 in 4.0 mi Variable 3.5 mph - N/A Snow Light Snow
8:50 AM 8.6 °F 2.0 °F 6.8 °F 92% 30.16 in 7.0 mi Variable 3.5 mph - N/A Snow Light Snow
9:53 AM 10.4 °F 4.0 °F 5.0 °F 79% 30.17 in 7.0 mi NW 3.5 mph - N/A Snow Light Snow
10:50 AM 12.2 °F 6.1 °F 6.8 °F 79% 30.17 in 4.0 mi NW 3.5 mph - N/A Snow Light Snow
11:50 AM 14.0 °F - 6.8 °F 73% 30.17 in 10.0 mi Calm Calm - N/A   Mostly Cloudy
12:55 PM 14.0 °F - 6.8 °F 73% 30.15 in 10.0 mi Calm Calm - N/A   Scattered Clouds
2:50 PM 15.8 °F - 6.8 °F 68% 30.15 in 10.0 mi Calm Calm - N/A   Scattered Clouds
3:55 PM 15.8 °F - 6.8 °F 68% 30.15 in 10.0 mi Calm Calm - N/A   Overcast
4:50 PM 15.8 °F 10.2 °F 6.8 °F 68% 30.15 in 10.0 mi NNW 3.5 mph - N/A   Overcast
5:50 PM 12.2 °F - 3.2 °F 67% 30.16 in 10.0 mi Calm Calm - N/A   Clear
6:45 PM 10.4 °F 4.0 °F 3.2 °F 73% 30.18 in 10.0 mi West 3.5 mph - N/A   Clear
7:50 PM 10.4 °F 4.0 °F 3.2 °F 73% 30.20 in 10.0 mi WNW 3.5 mph - N/A   Clear
8:45 PM 10.4 °F 2.2 °F 6.8 °F 85% 30.22 in 10.0 mi WNW 4.6 mph - N/A   Clear
9:15 PM 10.4 °F 2.2 °F 5.0 °F 79% 30.23 in 10.0 mi NW 4.6 mph - N/A   Clear
9:35 PM 10.4 °F 4.0 °F 5.0 °F 79% 30.23 in 10.0 mi NW 3.5 mph - N/A   Clear
9:55 PM 10.4 °F 4.0 °F 5.0 °F 79% 30.24 in 10.0 mi NNW 3.5 mph - N/A   Clear
10:15 PM 10.4 °F 2.2 °F 5.0 °F 79% 30.24 in 10.0 mi NW 4.6 mph - N/A   Clear
10:35 PM 10.4 °F 2.2 °F 5.0 °F 79% 30.25 in 10.0 mi NW 4.6 mph - N/A   Clear
10:55 PM 10.4 °F 2.2 °F 5.0 °F 79% 30.26 in 10.0 mi NW 4.6 mph - N/A   Clear
11:15 PM 10.4 °F 4.0 °F 5.0 °F 79% 30.25 in 10.0 mi NW 3.5 mph - N/A   Clear
11:35 PM 10.4 °F - 5.0 °F 79% 30.25 in 10.0 mi Calm Calm - N/A   Clear
11:55 PM 10.4 °F 2.2 °F 5.0 °F 79% 30.25 in 10.0 mi North 4.6 mph - N/A   Clear